STARLINK-4107, 53287

Orbit data source: Space-Track

STARLINK-4107, 53287 is a payload satellite owned by SpaceX/Seattle (US) in LEO that was launched on Sun, 24 Jul 2022 UTC via an FALCON 9 launch vehicle from the Air Force Eastern Test Range (AFETR). Payload-class satellites include a variety of spacecraft equipped with specific instruments for various scientific and technological missions. These include communications satellites like Starlink; space stations such as the ISS; scientific satellites like the Hubble; Earth observation satellites from companies like Planet Labs, Umbra, and HawkEye 360; GPS; miniature CubeSats for education and research; and military/defense satellites.

Loading next visibility...
Identifier
53287, 2022-086AX
Orbit
LEO
Country
Flag of USUS
Related business
Manufacturer
SpaceX/Seattle
Mission
Operational Commercial Communications
Bus & Motor
STARLINK, Unknown motor
Mass
297 kg wet, ~275 kg dry
Launch date (UTC)
2022-07-24 (4 years ago)
Launch vehicle
FALCON 9
Launch site
Air Force Eastern Test Range (AFETR)
Object type
Payload
Rocket body
Debris
Shape & HBR
Box + 1 Pan, 10.1 m
Radar Cross Section
13.562 m², Large (>1 m²)

Expand to show TLE details & history
Last TLE update: 2 days ago

TLE from 2 days ago
0 STARLINK-4107
1 53287U 22086AX  26171.41668980  .00243001  00000-0  12967-1 0  9998
2 53287  53.1603  82.7548 0001802  94.3103  99.0339 15.13551571  5721
Epoch: 2026-06-20T10:00Z
TLE epoch observation values (Epoch: 2026-06-20T10:00:01.998Z)
Latitude
-10.80112°
Longitude
-147.71326°
Altitude
528.496 km
Speed
7.599 km/s
True Right ascension
18h 03m 42s
True Declination
-10° 44' 09"
Sunlit
Object was in full shadow at epoch
Visualization orbit readout
Latitude
Unknown
Longitude
Unknown
Altitude
Unknown
Speed
Unknown
Apparent Right ascension
Unknown
Apparent Declination
Unknown
Sunlit
N/A
Visualization observer readout
Local Sidereal Time
21:29:13
Azimuth
Unknown
Elevation
Unknown
Doppler factor
Unknown
Orbital elements
Apogee altitude
526.878 km
Perigee altitude
524.39 km
Semi-major axis
6,903.771 km
Eccentricity
0.00018
Inclination
53.1603°
RAAN
82.7548°
Arg. of periapsis
94.3103°
True anomaly
99.05429°
Mean anomaly
99.0339°
Eccentric anomaly
99.0441°
Mean motion
3.78367 °/min
Orbital period
95.15 mins
BSTAR
0.012967
Loading maneuver chart data...
Computing Atmospheric mass density...
Loading historical data...
Loading historical data...
Loading historical data...
Loading historical data...
Loading historical data...
Loading historical data...
Loading historical data...

Documentation

Showing up to 5 results
|